STARLINK-37062, 68087

Orbit data source: Space-Track

STARLINK-37062, 68087 is a payload satellite owned by SpaceX/Seattle (US) in LEO that was launched on Wed, 04 Mar 2026 UTC via an FALCON 9 launch vehicle from the Air Force Eastern Test Range (AFETR). Payload-class satellites include a variety of spacecraft equipped with specific instruments for various scientific and technological missions. These include communications satellites like Starlink; space stations such as the ISS; scientific satellites like the Hubble; Earth observation satellites from companies like Planet Labs, Umbra, and HawkEye 360; GPS; miniature CubeSats for education and research; and military/defense satellites.

Loading next visibility...
Identifier
68087, 2026-042U
Orbit
LEO
Country
Flag of USUS
Related business
Manufacturer
SpaceX/Seattle
Mission
Operational spacecraft
Bus & Motor
STARLINK V2MO, Unknown motor
Mass
575 kg wet, ~530 kg dry
Launch date (UTC)
2026-03-04 (1 month ago)
Launch vehicle
FALCON 9
Launch site
Air Force Eastern Test Range (AFETR)
Object type
Payload
Rocket body
Debris
Shape & HBR
Unknown shape, 17.7 m
Radar Cross Section
RCS unknown

Expand to show TLE details & history
Last TLE update: 7 hours ago

TLE from 7 hours ago
0 STARLINK-37062
1 68087U 26042U   26102.29629186  .00118330  00000-0  76421-3 0  9996
2 68087  53.1586  26.7048 0001762 143.4184 216.6957 15.75272237  7393
Epoch: 2026-04-12T07:06Z
TLE epoch observation values (Epoch: 2026-04-12T07:06:39.616Z)
Latitude
-0.00002°
Longitude
79.53643°
Altitude
345.723 km
Speed
7.702 km/s
True Right ascension
01h 46m 49s
True Declination
0° 00' 00"
Sunlit
Object was in daylight at epoch
Visualization orbit readout
Latitude
Unknown
Longitude
Unknown
Altitude
Unknown
Speed
Unknown
Apparent Right ascension
Unknown
Apparent Declination
Unknown
Sunlit
N/A
Visualization observer readout
Local Sidereal Time
20:36:09
Azimuth
Unknown
Elevation
Unknown
Doppler factor
Unknown
Orbital elements
Apogee altitude
345.303 km
Perigee altitude
342.934 km
Semi-major axis
6,722.255 km
Eccentricity
0.00018
Inclination
53.1586°
RAAN
26.7048°
Arg. of periapsis
143.4184°
True anomaly
216.68364°
Mean anomaly
216.6957°
Eccentric anomaly
216.68967°
Mean motion
3.93795 °/min
Orbital period
91.42 mins
BSTAR
0.00076421
Loading maneuver chart data...
Computing Atmospheric mass density...
Loading historical data...
Loading historical data...
Loading historical data...
Loading historical data...
Loading historical data...
Loading historical data...
Loading historical data...

Documentation

Showing up to 5 results
|